{"data":{"norad_id":59456,"epoch":"2026-05-24T21:17:16.088064Z","epoch_age_seconds":74966,"freshness":"FRESH","line1":"1 59456U 24068B   26144.88699176 -.00001090  00000+0 -30071-4 0  9996","line2":"2 59456  43.0035 324.4141 0001503 282.8355  77.2329 15.27582666120176","mean_motion":15.27582666,"eccentricity":0.0001503,"inclination_deg":43.0035,"raan_deg":324.4141,"arg_perigee_deg":282.8355,"mean_anomaly_deg":77.2329,"bstar":-3.0071e-5,"rev_number":12017,"period_min":94.266584195451,"perigee_km":482.00987801778,"apogee_km":484.07234815857,"semimajor_km":6861.1781130882,"source":"CELESTRAK","updated_at":"2026-05-25T13:38:18.947949Z"}}